Regional Weather Roundup
Issued by NWS

Home | Current Version | Previous Version | Graphics & Text | Print | Product List | Glossary On
Versions: 1 2 3 4 5 6 7 8 9 10 11 12 13 14 15 16 17 18 19 20 21 22 23 24 25 26 27 28 29 30 31 32 33 34 35 36 37 38 39 40 41 42 43 44 45 46 47 48 49 50
765
ASUS45 KTFX 261210
RWRMT
MONTANA REGIONAL WEATHER ROUNDUP
NATIONAL WEATHER SERVICE GREAT FALLS MT
600 AM MDT THU MAY 26 2016

NOTE: "FAIR" INDICATES FEW OR NO CLOUDS BELOW 12000 FEET WITH NO
SIGNIFICANT WEATHER AND/OR OBSTRUCTIONS TO VISIBILITY.

MTZ001>007-043-261300-
WEST OF THE DIVIDE

CITY           SKY/WX    TMP DP  RH WIND       PRES   REMARKS
KALISPELL      CLOUDY    48  48 100 CALM      29.98F
MISSOULA       LGT RAIN  50  47  89 CALM      30.03F
BUTTE          CLOUDY    39  35  86 CALM      30.07R
MULLAN PASS    CLOUDY    42  38  85 SW5       30.07F
ANACONDA         N/A     46  37  71 CALM      30.04F
DEER LODGE       N/A     46  43  87 CALM      30.05S
EUREKA           N/A     52  46  82 CALM      29.97S
HAMILTON         N/A     50  41  71 S6        30.03S
LIBBY            N/A     48  46  93 CALM      30.00S
$$

MTZ008-052>055-261300-
SOUTHWEST MONTANA

CITY           SKY/WX    TMP DP  RH WIND       PRES   REMARKS
BOZEMAN        CLOUDY    46  41  82 E3        30.02R
DILLON         CLOUDY    38  32  79 SW8       30.04S
ENNIS          MOCLDY    41  36  81 CALM      30.10R
$$

MTZ009-010-012-014-046-048-049-054-261300-
EAST SLOPES AND CENTRAL MONTANA

CITY           SKY/WX    TMP DP  RH WIND       PRES   REMARKS
CUT BANK       LGT RAIN  46  43  89 NW8       29.96R
GREAT FALLS    CLOUDY    46  41  82 W3        29.95S
MALMSTROM AFB  LGT RAIN  48  44  87 W13       29.96R
HELENA         MOCLDY    45  42  89 CALM      29.98S
CHOTEAU          N/A     46  45  93 CALM      29.97R
$$

MTZ011-013-016-021-045-047-050-051-261300-
NORTH CENTRAL MONTANA

CITY           SKY/WX    TMP DP  RH WIND       PRES   REMARKS
HAVRE            N/A    N/A N/A N/A MISG      29.92R
LEWISTOWN      PTCLDY    45  41  86 CALM      29.94S
N BAR RANCH    FOG       39  37  93 W7        29.95S VSB<1/4
CHINOOK          N/A     46  45  93 W3        29.91S
$$

MTZ017>020-022>027-061-062-261300-
NORTHEAST MONTANA

CITY           SKY/WX    TMP DP  RH WIND       PRES   REMARKS
GLASGOW        CLEAR     44  42  93 NW7       29.84R
JORDAN           N/A     49  45  86 W10       29.86R
SIDNEY         PTCLDY    46  45  93 CALM      29.82R
WOLF POINT     PTCLDY    42  41  96 W3        29.83S
PLENTYWOOD       N/A     52  52 100 W3        29.80R
$$

MTZ028>42-056>058-261300-
SOUTHCENTRAL AND SOUTHEAST MONTANA

CITY           SKY/WX    TMP DP  RH WIND       PRES   REMARKS
BAKER          CLEAR     44  42  93 W7        29.87R
BILLINGS       PTCLDY    49  42  77 SW16      29.93S
LIVINGSTON     CLOUDY    43  37  79 W10       29.99S
MILES CITY     MOCLDY    50  46  86 W8        29.87R
FORSYTH          N/A     48  48 100 W8        29.89R
$$

REGIONAL REPORTS...DAKOTAS

CITY           SKY/WX    TMP DP  RH WIND       PRES   REMARKS
WILLISTON      CLOUDY    48  47  96 W6        29.81F FOG
MINOT          CLOUDY    58  54  86 W8        29.76R
DICKINSON      PTCLDY    44  42  93 W6        29.80S
BEACH          MOCLDY    46  46 100 SW10      29.87R
CROSBY         CLOUDY    54  54 100 CALM      29.80R FOG
WATFORD CITY     N/A     41  41 100 SW7       29.82S
BISMARCK       CLEAR     47  44  90 SW6       29.82R
GRAND FORKS    CLOUDY    58  55  90 SW6       29.71S
FARGO          SUNNY     56  53  90 SW6       29.75R
BUFFALO SD       N/A     42  39  89 SW6       29.82R
RAPID CITY     CLEAR     47  42  83 NW8       29.90R
$$

REGIONAL REPORTS...WYOMING/IDAHO/WASHINGTON

CITY           SKY/WX    TMP DP  RH WIND       PRES   REMARKS
GILLETTE       CLEAR     43  39  86 E3        29.94S
SHERIDAN       MOCLDY    46  40  79 W7        29.93R
BUFFALO WY     PTCLDY    48  36  63 W26G35    29.97R
CODY           CLOUDY    43  39  87 S6        29.99S
YELLOWSTONE LA   N/A     31  29  92 CALM      30.12S
IDAHO FALLS    CLEAR     39  37  92 CALM      30.04S
SALMON         CLEAR     37  32  81 CALM      30.07R
BOISE          CLEAR     47  41  80 CALM      30.01S
SPOKANE        PTCLDY    49  43  80 S7        30.02S
$$

REGIONAL REPORTS...ALBERTA

CITY           SKY/WX    TMP DP  RH WIND       PRES   REMARKS
EDMONTON       PTCLDY    52  48  87 W6        29.88F
CALGARY        PTCLDY    46  43  87 VRB2      29.93S
LETHBRIDGE     MOCLDY    48  45  87 SW6       29.93R
MEDICINE HAT   CLEAR     41  41 100 S3        29.93S
WATERTON GATE    N/A     48  43  81 SW9         N/A
MILK RIVER       N/A     43  41  93 NW7         N/A
$$

REGIONAL REPORTS...SASKATCHEWAN

CITY           SKY/WX    TMP DP  RH WIND       PRES   REMARKS
SWIFT CURRENT  LGT RAIN  50  50 100 N9        29.89R
REGINA         LGT RAIN  52  52 100 NE13      29.84R
SASKATOON      MOCLDY    54  46  76 N7        29.90R
CYPRESS HILLS    N/A     43  41  93 NW3         N/A
VAL MARIE        N/A     48  46  93 N9          N/A
ROCKGLEN         N/A     48  48 100 N7          N/A
$$




USA.gov is the U.S. government's official web portal to all federal, state and local government web resources and services.